Year,Month,Day,Hour,Minute,Value (Times are PST for barometer in hPa)
2012,10,14,00,00,997.56
2012,10,14,00,01,997.50
2012,10,14,00,02,997.53
2012,10,14,00,03,997.53
2012,10,14,00,04,997.53
2012,10,14,00,05,997.56
2012,10,14,00,06,997.53
2012,10,14,00,07,997.53
2012,10,14,00,08,997.53
2012,10,14,00,09,997.53
2012,10,14,00,10,997.53
2012,10,14,00,11,997.60
2012,10,14,00,12,997.53
2012,10,14,00,13,997.56
2012,10,14,00,14,997.53
2012,10,14,00,15,997.50
2012,10,14,00,16,997.50
2012,10,14,00,17,997.50
2012,10,14,00,18,997.46
2012,10,14,00,19,997.50
2012,10,14,00,20,997.50
2012,10,14,00,21,997.46
2012,10,14,00,22,997.46
2012,10,14,00,23,997.43
2012,10,14,00,24,997.43
2012,10,14,00,25,997.43
2012,10,14,00,26,997.43
2012,10,14,00,27,997.43
2012,10,14,00,28,997.43
2012,10,14,00,29,997.46
2012,10,14,00,30,997.43
2012,10,14,00,31,997.46
2012,10,14,00,32,997.43
2012,10,14,00,33,997.43
2012,10,14,00,34,997.39
2012,10,14,00,35,997.43
2012,10,14,00,36,997.46
2012,10,14,00,37,997.46
2012,10,14,00,38,997.46
2012,10,14,00,39,997.46
2012,10,14,00,40,997.43
2012,10,14,00,41,997.46
2012,10,14,00,42,997.43
2012,10,14,00,43,997.46
2012,10,14,00,44,997.43
2012,10,14,00,45,997.39
2012,10,14,00,46,997.43
2012,10,14,00,47,997.43
2012,10,14,00,48,997.39
2012,10,14,00,49,997.39
2012,10,14,00,50,997.43
2012,10,14,00,51,997.36
2012,10,14,00,52,997.36
2012,10,14,00,53,997.39
2012,10,14,00,54,997.36
2012,10,14,00,55,997.33
2012,10,14,00,56,997.36
2012,10,14,00,57,997.36
2012,10,14,00,58,997.36
2012,10,14,00,59,997.33
2012,10,14,01,00,997.36
2012,10,14,01,01,997.36
2012,10,14,01,02,997.33
2012,10,14,01,03,997.33
2012,10,14,01,04,997.33
2012,10,14,01,05,997.36
2012,10,14,01,06,997.36
2012,10,14,01,07,997.39
2012,10,14,01,08,997.33
2012,10,14,01,09,997.36
2012,10,14,01,10,997.36
2012,10,14,01,11,997.36
2012,10,14,01,12,997.33
2012,10,14,01,13,997.33
2012,10,14,01,14,997.29
2012,10,14,01,15,997.26
2012,10,14,01,16,997.29
2012,10,14,01,17,997.29
2012,10,14,01,18,997.26
2012,10,14,01,19,997.29
2012,10,14,01,20,997.26
2012,10,14,01,21,997.26
2012,10,14,01,22,997.22
2012,10,14,01,23,997.19
2012,10,14,01,24,997.19
2012,10,14,01,25,997.22
2012,10,14,01,26,997.16
2012,10,14,01,27,997.19
2012,10,14,01,28,997.19
2012,10,14,01,29,997.19
2012,10,14,01,30,997.19
2012,10,14,01,31,997.22
2012,10,14,01,32,997.19
2012,10,14,01,33,997.22
2012,10,14,01,34,997.19
2012,10,14,01,35,997.19
2012,10,14,01,36,997.16
2012,10,14,01,37,997.12
2012,10,14,01,38,997.12
2012,10,14,01,39,997.12
2012,10,14,01,40,997.09
2012,10,14,01,41,997.09
2012,10,14,01,42,997.05
2012,10,14,01,43,997.02
2012,10,14,01,44,997.05
2012,10,14,01,45,997.05
2012,10,14,01,46,997.09
2012,10,14,01,47,997.09
2012,10,14,01,48,997.05
2012,10,14,01,49,997.12
2012,10,14,01,50,997.05
2012,10,14,01,51,997.09
2012,10,14,01,52,997.05
2012,10,14,01,53,997.12
2012,10,14,01,54,997.05
2012,10,14,01,55,997.09
2012,10,14,01,56,997.09
2012,10,14,01,57,997.09
2012,10,14,01,58,997.09
2012,10,14,01,59,997.05
2012,10,14,02,00,997.09
2012,10,14,02,01,997.09
2012,10,14,02,02,997.05
2012,10,14,02,03,997.09
2012,10,14,02,04,997.05
2012,10,14,02,05,997.05
2012,10,14,02,06,997.02
2012,10,14,02,07,997.09
2012,10,14,02,08,997.05
2012,10,14,02,09,997.05
2012,10,14,02,10,997.09
2012,10,14,02,11,997.09
2012,10,14,02,12,997.05
2012,10,14,02,13,997.05
2012,10,14,02,14,997.09
2012,10,14,02,15,997.09
2012,10,14,02,16,997.12
2012,10,14,02,17,997.09
2012,10,14,02,18,997.09
2012,10,14,02,19,997.09
2012,10,14,02,20,997.12
2012,10,14,02,21,997.09
2012,10,14,02,22,997.05
2012,10,14,02,23,997.12
2012,10,14,02,24,997.09
2012,10,14,02,25,997.05
2012,10,14,02,26,997.05
2012,10,14,02,27,996.99
2012,10,14,02,28,996.99
2012,10,14,02,29,997.02
2012,10,14,02,30,996.95
2012,10,14,02,31,996.95
2012,10,14,02,32,996.89
2012,10,14,02,33,996.89
2012,10,14,02,34,996.89
2012,10,14,02,35,996.95
2012,10,14,02,36,996.95
2012,10,14,02,37,996.95
2012,10,14,02,38,996.99
2012,10,14,02,39,996.95
2012,10,14,02,40,996.95
2012,10,14,02,41,996.89
2012,10,14,02,42,996.89
2012,10,14,02,43,996.89
2012,10,14,02,44,996.85
2012,10,14,02,45,996.85
2012,10,14,02,46,996.82
2012,10,14,02,47,996.78
2012,10,14,02,48,996.78
2012,10,14,02,49,996.78
2012,10,14,02,50,996.75
2012,10,14,02,51,996.78
2012,10,14,02,52,996.78
2012,10,14,02,53,996.72
2012,10,14,02,54,996.75
2012,10,14,02,55,996.75
2012,10,14,02,56,996.75
2012,10,14,02,57,996.78
2012,10,14,02,58,996.75
2012,10,14,02,59,996.72
2012,10,14,03,00,996.72
2012,10,14,03,01,996.72
2012,10,14,03,02,996.72
2012,10,14,03,03,996.68
2012,10,14,03,04,996.68
2012,10,14,03,05,996.68
2012,10,14,03,06,996.65
2012,10,14,03,07,996.65
2012,10,14,03,08,996.61
2012,10,14,03,09,996.61
2012,10,14,03,10,996.61
2012,10,14,03,11,996.68
2012,10,14,03,12,996.68
2012,10,14,03,13,996.72
2012,10,14,03,14,996.68
2012,10,14,03,15,996.61
2012,10,14,03,16,996.61
2012,10,14,03,17,996.61
2012,10,14,03,18,996.65
2012,10,14,03,19,996.61
2012,10,14,03,20,996.61
2012,10,14,03,21,996.55
2012,10,14,03,22,996.55
2012,10,14,03,23,996.55
2012,10,14,03,24,996.55
2012,10,14,03,25,996.51
2012,10,14,03,26,996.51
2012,10,14,03,27,996.51
2012,10,14,03,28,996.48
2012,10,14,03,29,996.48
2012,10,14,03,30,996.51
2012,10,14,03,31,996.55
2012,10,14,03,32,996.55
2012,10,14,03,33,996.51
2012,10,14,03,34,996.51
2012,10,14,03,35,996.58
2012,10,14,03,36,996.58
2012,10,14,03,37,996.51
2012,10,14,03,38,996.48
2012,10,14,03,39,996.51
2012,10,14,03,40,996.51
2012,10,14,03,41,996.45
2012,10,14,03,42,996.48
2012,10,14,03,43,996.45
2012,10,14,03,44,996.45
2012,10,14,03,45,996.45
2012,10,14,03,46,996.41
2012,10,14,03,47,996.38
2012,10,14,03,48,996.38
2012,10,14,03,49,996.31
2012,10,14,03,50,996.31
2012,10,14,03,51,996.28
2012,10,14,03,52,996.24
2012,10,14,03,53,996.24
2012,10,14,03,54,996.28
2012,10,14,03,55,996.28
2012,10,14,03,56,996.24
2012,10,14,03,57,996.28
2012,10,14,03,58,996.24
2012,10,14,03,59,996.24
2012,10,14,04,00,996.21
2012,10,14,04,01,996.24
2012,10,14,04,02,996.24
2012,10,14,04,03,996.31
2012,10,14,04,04,996.24
2012,10,14,04,05,996.24
2012,10,14,04,06,996.21
2012,10,14,04,07,996.21
2012,10,14,04,08,996.17
2012,10,14,04,09,996.14
2012,10,14,04,10,996.14
2012,10,14,04,11,996.17
2012,10,14,04,12,996.14
2012,10,14,04,13,996.14
2012,10,14,04,14,996.14
2012,10,14,04,15,996.17
2012,10,14,04,16,996.14
2012,10,14,04,17,996.07
2012,10,14,04,18,996.04
2012,10,14,04,19,996.04
2012,10,14,04,20,996.07
2012,10,14,04,21,996.14
2012,10,14,04,22,996.07
2012,10,14,04,23,996.07
2012,10,14,04,24,996.01
2012,10,14,04,25,996.07
2012,10,14,04,26,996.01
2012,10,14,04,27,996.01
2012,10,14,04,28,996.01
2012,10,14,04,29,995.97
2012,10,14,04,30,995.90
2012,10,14,04,31,995.94
2012,10,14,04,32,995.87
2012,10,14,04,33,995.87
2012,10,14,04,34,995.87
2012,10,14,04,35,995.84
2012,10,14,04,36,995.84
2012,10,14,04,37,995.80
2012,10,14,04,38,995.84
2012,10,14,04,39,995.77
2012,10,14,04,40,995.84
2012,10,14,04,41,995.73
2012,10,14,04,42,995.77
2012,10,14,04,43,995.80
2012,10,14,04,44,995.80
2012,10,14,04,45,995.80
2012,10,14,04,46,995.84
2012,10,14,04,47,995.77
2012,10,14,04,48,995.73
2012,10,14,04,49,995.73
2012,10,14,04,50,995.73
2012,10,14,04,51,995.73
2012,10,14,04,52,995.70
2012,10,14,04,53,995.70
2012,10,14,04,54,995.67
2012,10,14,04,55,995.63
2012,10,14,04,56,995.63
2012,10,14,04,57,995.56
2012,10,14,04,58,995.56
2012,10,14,04,59,995.53
2012,10,14,05,00,995.50
2012,10,14,05,01,995.53
2012,10,14,05,02,995.53
2012,10,14,05,03,995.50
2012,10,14,05,04,995.50
2012,10,14,05,05,995.50
2012,10,14,05,06,995.43
2012,10,14,05,07,995.43
2012,10,14,05,08,995.40
2012,10,14,05,09,995.36
2012,10,14,05,10,995.36
2012,10,14,05,11,995.29
2012,10,14,05,12,995.29
2012,10,14,05,13,995.26
2012,10,14,05,14,995.23
2012,10,14,05,15,995.23
2012,10,14,05,16,995.29
2012,10,14,05,17,995.23
2012,10,14,05,18,995.23
2012,10,14,05,19,995.19
2012,10,14,05,20,995.19
2012,10,14,05,21,995.12
2012,10,14,05,22,995.16
2012,10,14,05,23,995.12
2012,10,14,05,24,995.12
2012,10,14,05,25,995.16
2012,10,14,05,26,995.09
2012,10,14,05,27,995.12
2012,10,14,05,28,995.06
2012,10,14,05,29,995.02
2012,10,14,05,30,995.02
2012,10,14,05,31,995.02
2012,10,14,05,32,995.09
2012,10,14,05,33,995.02
2012,10,14,05,34,995.02
2012,10,14,05,35,995.06
2012,10,14,05,36,995.06
2012,10,14,05,37,995.06
2012,10,14,05,38,994.99
2012,10,14,05,39,994.99
2012,10,14,05,40,994.99
2012,10,14,05,41,994.96
2012,10,14,05,42,994.99
2012,10,14,05,43,994.92
2012,10,14,05,44,994.96
2012,10,14,05,45,994.85
2012,10,14,05,46,994.82
2012,10,14,05,47,994.82
2012,10,14,05,48,994.82
2012,10,14,05,49,994.75
2012,10,14,05,50,994.68
2012,10,14,05,51,994.79
2012,10,14,05,52,994.75
2012,10,14,05,53,994.72
2012,10,14,05,54,994.68
2012,10,14,05,55,994.65
2012,10,14,05,56,994.65
2012,10,14,05,57,994.65
2012,10,14,05,58,994.55
2012,10,14,05,59,994.58
2012,10,14,06,00,994.55
2012,10,14,06,01,994.48
2012,10,14,06,02,994.48
2012,10,14,06,03,994.48
2012,10,14,06,04,994.41
2012,10,14,06,05,994.45
2012,10,14,06,06,994.41
2012,10,14,06,07,994.41
2012,10,14,06,08,994.41
2012,10,14,06,09,994.38
2012,10,14,06,10,994.38
2012,10,14,06,11,994.38
2012,10,14,06,12,994.35
2012,10,14,06,13,994.35
2012,10,14,06,14,994.28
2012,10,14,06,15,994.31
2012,10,14,06,16,994.31
2012,10,14,06,17,994.31
2012,10,14,06,18,994.28
2012,10,14,06,19,994.31
2012,10,14,06,20,994.31
2012,10,14,06,21,994.31
2012,10,14,06,22,994.28
2012,10,14,06,23,994.24
2012,10,14,06,24,994.28
2012,10,14,06,25,994.28
2012,10,14,06,26,994.18
2012,10,14,06,27,994.24
2012,10,14,06,28,994.18
2012,10,14,06,29,994.18
2012,10,14,06,30,994.18
2012,10,14,06,31,994.14
2012,10,14,06,32,994.14
2012,10,14,06,33,994.18
2012,10,14,06,34,994.14
2012,10,14,06,35,994.11
2012,10,14,06,36,994.11
2012,10,14,06,37,994.07
2012,10,14,06,38,994.07
2012,10,14,06,39,994.04
2012,10,14,06,40,994.01
2012,10,14,06,41,994.04
2012,10,14,06,42,993.97
2012,10,14,06,43,993.94
2012,10,14,06,44,994.01
2012,10,14,06,45,994.01
2012,10,14,06,46,993.97
2012,10,14,06,47,994.04
2012,10,14,06,48,993.97
2012,10,14,06,49,993.94
2012,10,14,06,50,993.97
2012,10,14,06,51,993.97
2012,10,14,06,52,993.97
2012,10,14,06,53,993.94
2012,10,14,06,54,993.91
2012,10,14,06,55,993.94
2012,10,14,06,56,993.87
2012,10,14,06,57,993.84
2012,10,14,06,58,993.91
2012,10,14,06,59,993.87
2012,10,14,07,00,993.91
2012,10,14,07,01,993.87
2012,10,14,07,02,993.84
2012,10,14,07,03,993.84
2012,10,14,07,04,993.80
2012,10,14,07,05,993.77
2012,10,14,07,06,993.77
2012,10,14,07,07,993.77
2012,10,14,07,08,993.77
2012,10,14,07,09,993.77
2012,10,14,07,10,993.74
2012,10,14,07,11,993.74
2012,10,14,07,12,993.77
2012,10,14,07,13,993.80
2012,10,14,07,14,993.80
2012,10,14,07,15,993.80
2012,10,14,07,16,993.84
2012,10,14,07,17,993.84
2012,10,14,07,18,993.80
2012,10,14,07,19,993.80
2012,10,14,07,20,993.80
2012,10,14,07,21,993.80
2012,10,14,07,22,993.84
2012,10,14,07,23,993.80
2012,10,14,07,24,993.84
2012,10,14,07,25,993.84
2012,10,14,07,26,993.80
2012,10,14,07,27,993.77
2012,10,14,07,28,993.77
2012,10,14,07,29,993.80
2012,10,14,07,30,993.74
2012,10,14,07,31,993.74
2012,10,14,07,32,993.74
2012,10,14,07,33,993.77
2012,10,14,07,34,993.77
2012,10,14,07,35,993.74
2012,10,14,07,36,993.74
2012,10,14,07,37,993.70
2012,10,14,07,38,993.74
2012,10,14,07,39,993.70
2012,10,14,07,40,993.67
2012,10,14,07,41,993.67
2012,10,14,07,42,993.67
2012,10,14,07,43,993.57
2012,10,14,07,44,993.60
2012,10,14,07,45,993.67
2012,10,14,07,46,993.57
2012,10,14,07,47,993.53
2012,10,14,07,48,993.53
2012,10,14,07,49,993.53
2012,10,14,07,50,993.53
2012,10,14,07,51,993.53
2012,10,14,07,52,993.47
2012,10,14,07,53,993.50
2012,10,14,07,54,993.43
2012,10,14,07,55,993.43
2012,10,14,07,56,993.36
2012,10,14,07,57,993.36
2012,10,14,07,58,993.33
2012,10,14,07,59,993.30
2012,10,14,08,00,993.30
2012,10,14,08,01,993.30
2012,10,14,08,02,993.26
2012,10,14,08,03,993.26
2012,10,14,08,04,993.23
2012,10,14,08,05,993.23
2012,10,14,08,06,993.23
2012,10,14,08,07,993.23
2012,10,14,08,08,993.23
2012,10,14,08,09,993.23
2012,10,14,08,10,993.26
2012,10,14,08,11,993.26
2012,10,14,08,12,993.19
2012,10,14,08,13,993.19
2012,10,14,08,14,993.19
2012,10,14,08,15,993.19
2012,10,14,08,16,993.13
2012,10,14,08,17,993.16
2012,10,14,08,18,993.16
2012,10,14,08,19,993.16
2012,10,14,08,20,993.19
2012,10,14,08,21,993.19
2012,10,14,08,22,993.19
2012,10,14,08,23,993.19
2012,10,14,08,24,993.23
2012,10,14,08,25,993.23
2012,10,14,08,26,993.23
2012,10,14,08,27,993.26
2012,10,14,08,28,993.23
2012,10,14,08,29,993.23
2012,10,14,08,30,993.23
2012,10,14,08,31,993.19
2012,10,14,08,32,993.16
2012,10,14,08,33,993.23
2012,10,14,08,34,993.19
2012,10,14,08,35,993.19
2012,10,14,08,36,993.19
2012,10,14,08,37,993.19
2012,10,14,08,38,993.19
2012,10,14,08,39,993.23
2012,10,14,08,40,993.19
2012,10,14,08,41,993.16
2012,10,14,08,42,993.13
2012,10,14,08,43,993.06
2012,10,14,08,44,993.06
2012,10,14,08,45,993.06
2012,10,14,08,46,993.06
2012,10,14,08,47,993.03
2012,10,14,08,48,993.03
2012,10,14,08,49,992.99
2012,10,14,08,50,993.06
2012,10,14,08,51,992.99
2012,10,14,08,52,992.99
2012,10,14,08,53,993.03
2012,10,14,08,54,992.99
2012,10,14,08,55,992.99
2012,10,14,08,56,993.03
2012,10,14,08,57,992.96
2012,10,14,08,58,993.03
2012,10,14,08,59,992.92
2012,10,14,09,00,992.96
2012,10,14,09,01,992.92
2012,10,14,09,02,992.92
2012,10,14,09,03,992.92
2012,10,14,09,04,992.89
2012,10,14,09,05,992.92
2012,10,14,09,06,992.89
2012,10,14,09,07,992.86
2012,10,14,09,08,992.82
2012,10,14,09,09,992.82
2012,10,14,09,10,992.82
2012,10,14,09,11,992.82
2012,10,14,09,12,992.86
2012,10,14,09,13,992.82
2012,10,14,09,14,992.82
2012,10,14,09,15,992.72
2012,10,14,09,16,992.75
2012,10,14,09,17,992.75
2012,10,14,09,18,992.69
2012,10,14,09,19,992.69
2012,10,14,09,20,992.69
2012,10,14,09,21,992.69
2012,10,14,09,22,992.69
2012,10,14,09,23,992.65
2012,10,14,09,24,992.65
2012,10,14,09,25,992.58
2012,10,14,09,26,992.58
2012,10,14,09,27,992.58
2012,10,14,09,28,992.52
2012,10,14,09,29,992.58
2012,10,14,09,30,992.55
2012,10,14,09,31,992.55
2012,10,14,09,32,992.52
2012,10,14,09,33,992.48
2012,10,14,09,34,992.52
2012,10,14,09,35,992.55
2012,10,14,09,36,992.52
2012,10,14,09,37,992.55
2012,10,14,09,38,992.48
2012,10,14,09,39,992.52
2012,10,14,09,40,992.48
2012,10,14,09,41,992.52
2012,10,14,09,42,992.45
2012,10,14,09,43,992.48
2012,10,14,09,44,992.52
2012,10,14,09,45,992.48
2012,10,14,09,46,992.48
2012,10,14,09,47,992.45
2012,10,14,09,48,992.52
2012,10,14,09,49,992.48
2012,10,14,09,50,992.42
2012,10,14,09,51,992.38
2012,10,14,09,52,992.45
2012,10,14,09,53,992.42
2012,10,14,09,54,992.42
2012,10,14,09,55,992.35
2012,10,14,09,56,992.42
2012,10,14,09,57,992.38
2012,10,14,09,58,992.38
2012,10,14,09,59,992.35
2012,10,14,10,00,992.35
2012,10,14,10,01,992.42
2012,10,14,10,02,992.42
2012,10,14,10,03,992.45
2012,10,14,10,04,992.45
2012,10,14,10,05,992.45
2012,10,14,10,06,992.45
2012,10,14,10,07,992.45
2012,10,14,10,08,992.38
2012,10,14,10,09,992.42
2012,10,14,10,10,992.38
2012,10,14,10,11,992.35
2012,10,14,10,12,992.35
2012,10,14,10,13,992.35
2012,10,14,10,14,992.31
2012,10,14,10,15,992.31
2012,10,14,10,16,992.28
2012,10,14,10,17,992.25
2012,10,14,10,18,992.28
2012,10,14,10,19,992.25
2012,10,14,10,20,992.25
2012,10,14,10,21,992.25
2012,10,14,10,22,992.25
2012,10,14,10,23,992.25
2012,10,14,10,24,992.28
2012,10,14,10,25,992.28
2012,10,14,10,26,992.28
2012,10,14,10,27,992.25
2012,10,14,10,28,992.25
2012,10,14,10,29,992.28
2012,10,14,10,30,992.25
2012,10,14,10,31,992.21
2012,10,14,10,32,992.25
2012,10,14,10,33,992.18
2012,10,14,10,34,992.21
2012,10,14,10,35,992.21
2012,10,14,10,36,992.21
2012,10,14,10,37,992.21
2012,10,14,10,38,992.11
2012,10,14,10,39,992.11
2012,10,14,10,40,992.11
2012,10,14,10,41,992.08
2012,10,14,10,42,992.11
2012,10,14,10,43,992.08
2012,10,14,10,44,992.01
2012,10,14,10,45,992.01
2012,10,14,10,46,992.01
2012,10,14,10,47,991.91
2012,10,14,10,48,992.01
2012,10,14,10,49,991.94
2012,10,14,10,50,992.01
2012,10,14,10,51,991.91
2012,10,14,10,52,991.91
2012,10,14,10,53,991.87
2012,10,14,10,54,991.87
2012,10,14,10,55,991.87
2012,10,14,10,56,991.87
2012,10,14,10,57,991.84
2012,10,14,10,58,991.91
2012,10,14,10,59,991.84
2012,10,14,11,00,991.81
2012,10,14,11,01,991.81
2012,10,14,11,02,991.74
2012,10,14,11,03,991.74
2012,10,14,11,04,991.74
2012,10,14,11,05,991.74
2012,10,14,11,06,991.70
2012,10,14,11,07,991.67
2012,10,14,11,08,991.67
2012,10,14,11,09,991.64
2012,10,14,11,10,991.67
2012,10,14,11,11,991.64
2012,10,14,11,12,991.64
2012,10,14,11,13,991.60
2012,10,14,11,14,991.57
2012,10,14,11,15,991.60
2012,10,14,11,16,991.53
2012,10,14,11,17,991.53
2012,10,14,11,18,991.53
2012,10,14,11,19,991.53
2012,10,14,11,20,991.50
2012,10,14,11,21,991.50
2012,10,14,11,22,991.57
2012,10,14,11,23,991.57
2012,10,14,11,24,991.53
2012,10,14,11,25,991.53
2012,10,14,11,26,991.53
2012,10,14,11,27,991.53
2012,10,14,11,28,991.50
2012,10,14,11,29,991.53
2012,10,14,11,30,991.53
2012,10,14,11,31,991.57
2012,10,14,11,32,991.53
2012,10,14,11,33,991.53
2012,10,14,11,34,991.53
2012,10,14,11,35,991.50
2012,10,14,11,36,991.50
2012,10,14,11,37,991.50
2012,10,14,11,38,991.50
2012,10,14,11,39,991.53
2012,10,14,11,40,991.53
2012,10,14,11,41,991.53
2012,10,14,11,42,991.53
2012,10,14,11,43,991.47
2012,10,14,11,44,991.50
2012,10,14,11,45,991.43
2012,10,14,11,46,991.43
2012,10,14,11,47,991.43
2012,10,14,11,48,991.37
2012,10,14,11,49,991.37
2012,10,14,11,50,991.30
2012,10,14,11,51,991.30
2012,10,14,11,52,991.26
2012,10,14,11,53,991.30
2012,10,14,11,54,991.26
2012,10,14,11,55,991.26
2012,10,14,11,56,991.26
2012,10,14,11,57,991.23
2012,10,14,11,58,991.26
2012,10,14,11,59,991.23
2012,10,14,12,00,991.23
2012,10,14,12,01,991.20
2012,10,14,12,02,991.13
2012,10,14,12,03,991.13
2012,10,14,12,04,991.06
2012,10,14,12,05,991.09
2012,10,14,12,06,991.06
2012,10,14,12,07,991.06
2012,10,14,12,08,991.03
2012,10,14,12,09,991.03
2012,10,14,12,10,990.99
2012,10,14,12,11,990.99
2012,10,14,12,12,990.99
2012,10,14,12,13,990.99
2012,10,14,12,14,990.99
2012,10,14,12,15,990.96
2012,10,14,12,16,990.96
2012,10,14,12,17,990.89
2012,10,14,12,18,990.93
2012,10,14,12,19,990.93
2012,10,14,12,20,990.93
2012,10,14,12,21,990.89
2012,10,14,12,22,990.96
2012,10,14,12,23,990.89
2012,10,14,12,24,990.89
2012,10,14,12,25,990.93
2012,10,14,12,26,990.83
2012,10,14,12,27,990.82
2012,10,14,12,28,990.79
2012,10,14,12,29,990.86
2012,10,14,12,30,990.82
2012,10,14,12,31,990.79
2012,10,14,12,32,990.79
2012,10,14,12,33,990.76
2012,10,14,12,34,990.76
2012,10,14,12,35,990.72
2012,10,14,12,36,990.72
2012,10,14,12,37,990.72
2012,10,14,12,38,990.72
2012,10,14,12,39,990.76
2012,10,14,12,40,990.76
2012,10,14,12,41,990.72
2012,10,14,12,42,990.72
2012,10,14,12,43,990.76
2012,10,14,12,44,990.69
2012,10,14,12,45,990.69
2012,10,14,12,46,990.69
2012,10,14,12,47,990.69
2012,10,14,12,48,990.69
2012,10,14,12,49,990.59
2012,10,14,12,50,990.59
2012,10,14,12,51,990.62
2012,10,14,12,52,990.59
2012,10,14,12,53,990.62
2012,10,14,12,54,990.62
2012,10,14,12,55,990.59
2012,10,14,12,56,990.55
2012,10,14,12,57,990.59
2012,10,14,12,58,990.59
2012,10,14,12,59,990.55
2012,10,14,13,00,990.52
2012,10,14,13,01,990.52
2012,10,14,13,02,990.52
2012,10,14,13,03,990.49
2012,10,14,13,04,990.52
2012,10,14,13,05,990.52
2012,10,14,13,06,990.49
2012,10,14,13,07,990.49
2012,10,14,13,08,990.45
2012,10,14,13,09,990.45
2012,10,14,13,10,990.49
2012,10,14,13,11,990.45
2012,10,14,13,12,990.45
2012,10,14,13,13,990.45
2012,10,14,13,14,990.42
2012,10,14,13,15,990.42
2012,10,14,13,16,990.42
2012,10,14,13,17,990.42
2012,10,14,13,18,990.42
2012,10,14,13,19,990.42
2012,10,14,13,20,990.38
2012,10,14,13,21,990.35
2012,10,14,13,22,990.35
2012,10,14,13,23,990.35
2012,10,14,13,24,990.32
2012,10,14,13,25,990.32
2012,10,14,13,26,990.21
2012,10,14,13,27,990.21
2012,10,14,13,28,990.18
2012,10,14,13,29,990.21
2012,10,14,13,30,990.21
2012,10,14,13,31,990.21
2012,10,14,13,32,990.25
2012,10,14,13,33,990.21
2012,10,14,13,34,990.18
2012,10,14,13,35,990.21
2012,10,14,13,36,990.18
2012,10,14,13,37,990.18
2012,10,14,13,38,990.15
2012,10,14,13,39,990.18
2012,10,14,13,40,990.15
2012,10,14,13,41,990.11
2012,10,14,13,42,990.15
2012,10,14,13,43,990.08
2012,10,14,13,44,990.04
2012,10,14,13,45,990.04
2012,10,14,13,46,990.04
2012,10,14,13,47,989.98
2012,10,14,13,48,989.98
2012,10,14,13,49,989.98
2012,10,14,13,50,989.94
2012,10,14,13,51,989.98
2012,10,14,13,52,989.98
2012,10,14,13,53,989.94
2012,10,14,13,54,989.91
2012,10,14,13,55,989.91
2012,10,14,13,56,989.91
2012,10,14,13,57,989.88
2012,10,14,13,58,989.81
2012,10,14,13,59,989.88
2012,10,14,14,00,989.81
2012,10,14,14,01,989.81
2012,10,14,14,02,989.81
2012,10,14,14,03,989.81
2012,10,14,14,04,989.81
2012,10,14,14,05,989.81
2012,10,14,14,06,989.81
2012,10,14,14,07,989.77
2012,10,14,14,08,989.77
2012,10,14,14,09,989.74
2012,10,14,14,10,989.74
2012,10,14,14,11,989.71
2012,10,14,14,12,989.67
2012,10,14,14,13,989.64
2012,10,14,14,14,989.64
2012,10,14,14,15,989.64
2012,10,14,14,16,989.60
2012,10,14,14,17,989.60
2012,10,14,14,18,989.67
2012,10,14,14,19,989.64
2012,10,14,14,20,989.57
2012,10,14,14,21,989.64
2012,10,14,14,22,989.64
2012,10,14,14,23,989.60
2012,10,14,14,24,989.57
2012,10,14,14,25,989.54
2012,10,14,14,26,989.54
2012,10,14,14,27,989.57
2012,10,14,14,28,989.54
2012,10,14,14,29,989.57
2012,10,14,14,30,989.54
2012,10,14,14,31,989.54
2012,10,14,14,32,989.50
2012,10,14,14,33,989.44
2012,10,14,14,34,989.54
2012,10,14,14,35,989.47
2012,10,14,14,36,989.44
2012,10,14,14,37,989.44
2012,10,14,14,38,989.44
2012,10,14,14,39,989.47
2012,10,14,14,40,989.40
2012,10,14,14,41,989.40
2012,10,14,14,42,989.37
2012,10,14,14,43,989.40
2012,10,14,14,44,989.37
2012,10,14,14,45,989.40
2012,10,14,14,46,989.37
2012,10,14,14,47,989.33
2012,10,14,14,48,989.33
2012,10,14,14,49,989.30
2012,10,14,14,50,989.30
2012,10,14,14,51,989.27
2012,10,14,14,52,989.23
2012,10,14,14,53,989.27
2012,10,14,14,54,989.20
2012,10,14,14,55,989.20
2012,10,14,14,56,989.20
2012,10,14,14,57,989.13
2012,10,14,14,58,989.16
2012,10,14,14,59,989.13
2012,10,14,15,00,989.13
2012,10,14,15,01,989.13
2012,10,14,15,02,989.16
2012,10,14,15,03,989.16
2012,10,14,15,04,989.13
2012,10,14,15,05,989.13
2012,10,14,15,06,989.10
2012,10,14,15,07,989.10
2012,10,14,15,08,989.03
2012,10,14,15,09,989.03
2012,10,14,15,10,989.03
2012,10,14,15,11,989.03
2012,10,14,15,12,989.03
2012,10,14,15,13,988.96
2012,10,14,15,14,989.03
2012,10,14,15,15,988.96
2012,10,14,15,16,989.00
2012,10,14,15,17,989.00
2012,10,14,15,18,988.96
2012,10,14,15,19,989.03
2012,10,14,15,20,989.03
2012,10,14,15,21,989.06
2012,10,14,15,22,989.06
2012,10,14,15,23,989.03
2012,10,14,15,24,989.03
2012,10,14,15,25,989.03
2012,10,14,15,26,989.00
2012,10,14,15,27,988.96
2012,10,14,15,28,988.93
2012,10,14,15,29,988.89
2012,10,14,15,30,988.86
2012,10,14,15,31,988.89
2012,10,14,15,32,988.89
2012,10,14,15,33,988.83
2012,10,14,15,34,988.79
2012,10,14,15,35,988.79
2012,10,14,15,36,988.83
2012,10,14,15,37,988.83
2012,10,14,15,38,988.76
2012,10,14,15,39,988.72
2012,10,14,15,40,988.69
2012,10,14,15,41,988.66
2012,10,14,15,42,988.69
2012,10,14,15,43,988.66
2012,10,14,15,44,988.66
2012,10,14,15,45,988.66
2012,10,14,15,46,988.66
2012,10,14,15,47,988.59
2012,10,14,15,48,988.59
2012,10,14,15,49,988.55
2012,10,14,15,50,988.59
2012,10,14,15,51,988.52
2012,10,14,15,52,988.55
2012,10,14,15,53,988.55
2012,10,14,15,54,988.52
2012,10,14,15,55,988.49
2012,10,14,15,56,988.49
2012,10,14,15,57,988.49
2012,10,14,15,58,988.45
2012,10,14,15,59,988.45
2012,10,14,16,00,988.45
2012,10,14,16,01,988.45
2012,10,14,16,02,988.39
2012,10,14,16,03,988.45
2012,10,14,16,04,988.39
2012,10,14,16,05,988.39
2012,10,14,16,06,988.45
2012,10,14,16,07,988.49
2012,10,14,16,08,988.49
2012,10,14,16,09,988.49
2012,10,14,16,10,988.49
2012,10,14,16,11,988.42
2012,10,14,16,12,988.42
2012,10,14,16,13,988.42
2012,10,14,16,14,988.39
2012,10,14,16,15,988.35
2012,10,14,16,16,988.42
2012,10,14,16,17,988.35
2012,10,14,16,18,988.39
2012,10,14,16,19,988.32
2012,10,14,16,20,988.39
2012,10,14,16,21,988.35
2012,10,14,16,22,988.39
2012,10,14,16,23,988.35
2012,10,14,16,24,988.35
2012,10,14,16,25,988.32
2012,10,14,16,26,988.32
2012,10,14,16,27,988.32
2012,10,14,16,28,988.28
2012,10,14,16,29,988.32
2012,10,14,16,30,988.32
2012,10,14,16,31,988.32
2012,10,14,16,32,988.18
2012,10,14,16,33,988.22
2012,10,14,16,34,988.18
2012,10,14,16,35,988.18
2012,10,14,16,36,988.15